SCP
0 0 0 0 0 0 0 0 0 0 0 0 0 0 0 0 0 0 0 0 0 0 0 0 0 0 0 0 0 0 0 0 0 0 0 0 0 0 0 0 0 0 0
0 0 0 0 0 0 0 0 0 0 0 0 0 0 0 0 0 0 0 0 0 0 0 0 0 0 0 0 0 0 0 0 0 0 0 0 0 0 0 0 0 0 0
0 0 0 0 0 0 0 0 0 0 0 0 0 0 0 0 0 0 0 0 0 0 0 0 0 0 0 0 0 0 0 0 0 0 0 0 0 0 0 0 0 0 0
0 0 0 0 0 0 0 0 0 0 0 0 0 0 0 0 0 0 0 0 0 0 0 0 0 0 0 0 0 0 0 0 0 0 0 0 0 0 0 0 0 0 0
0 0 0 0 0 0 0 0 0 0 0 0 0 0 0 0 0 0 0 0 0 0 0 0 0 0 0 0 0 0 0 0 0 0 0 0 0 0 0 0 0 0 0
0 0 0 0 0 0 0 0 0 0 0 0 0 0 0 0 0 0 0 0 0 0 0 0 0 0 0 0 0 0 0 0 0 0 0 0 0 0 0 0 0 0 0
0 0 0 0 0 0 0 0 0 0 0 0 0 0 0 0 0 0 0 0 0 0 0 0 0 0 0 0 0 0 0 0 0 0 0 0 0 0 0 0 0 0 0
0 0 0 0 0 0 0 0 0 0 0 0 0 0 0 0 0 0 0 0 0 0 0 0 0 0 0 0 0 0 0 0 0 0 0 0 0 0 0 0 0 0 0
0 0 0 0 0 0 0 0 0 0 0 0 0 0 0 0 0 0 0 0 0 0 0 0 0 0 0 0 0 0 0 0 0 0 0 0 0 0 0 0 0 0 0
0 0 0 0 0 0 -0 -0 0 0 0 0 -0 0 0 0 0 0 0 0 0 0 0 0 0 0 0 0 0 0 0 0 0 0 0 0 0 0 0 0 0 0 0
0 0 0 0 -0 -0 -0 0 0 0 0 -0 0 0 0 0 0 0 0 0 0 0 0 0 0 0 0 0 0 0 0 0 0 0 0 0 0 0 0 0 0 0 0
0 0 -0 -0 -0 0 0 0 0 0 0 0 0 0 0 0 0 0 0 0 0 0 0 0 0 0 0 0 0 0 0 0 0 0 0 0 0 0 0 0 0 0 0
-0 -0 -0 -0 -0 -0 0 0 0 0 0 0 0 0 0 0 0 0 0 0 0 0 0 0 0 0 0 0 0 0 0 0 0 0 0 0 0 0 0 0 0 0 0
-0 -0 -0 -0 -0 0 0 0 0 0 0 0 0 0 0 0 0 0 0 0 0 0 0 0 0 0 0 0 0 0 0 0 0 0 0 0 0 0 0 0 0 0 0
-0 0 0 -0 -0 0 0 -0 -0 0 0 0 0 0 0 0 0 0 0 0 0 0 0 0 0 0 0 0 0 0 0 0 0 0 0 0 0 0 0 0 0 0 0
0 0 -0 -0 -0 -0 -0 0 0 -0 0 0 0 0 0 0 0 0 0 0 0 0 0 0 0 0 0 0 0 0 0 0 0 0 0 0 0 0 0 0 0 0 0
-0 -0 -0 0 -0 -0 0 0 0 0 0 0 0 0 0 0 0 0 0 0 0 0 0 0 0 0 0 0 0 0 0 0 0 0 0 0 0 0 0 0 0 0 0
-0 0 0 0 0 0 0 0 0 0 0 0 0 0 0 0 0 0 0 0 0 0 0 0 0 0 0 0 0 0 0 0 0 0 0 0 0 0 0 0 0 0 0
0 0 0 0 0 0 0 0 0 0 0 0 0 0 0 0 0 0 0 0 0 0 0 0 0 0 0 0 0 0 0 0 0 0 0 0 0 0 0 0 0 0 0
0 0 0 0 0 0 0 0 0 0 0 0 0 0 0 0 0 0 0 0 0 0 0 0 0 0 0 0 0 0 0 0 0 0 0 0 0 0 0 0 0 0 0
0 0 0 0 0 0 0 0 0 0 0 0 0 0 0 0 0 0 0 0 0 0 0 0 0 0 0 0 0 0 0 0 0 0 0 0 0 0 0 0 0 0 0
0 0 0 0 0 0 0 0 0 0 0 0 0 0 0 0 0 0 0 0 0 0 0 0 0 0 0 0 0 0 0 0 0 0 0 0 0 0 0 0 0 0 0
0 0 0 0 0 0 0 0 0 0 0 0 0 0 0 0 0 0 0 0 0 0 0 0 0 0 0 0 0 0 0 0 0 0 0 0 0 0 0 0 0 0 0
0 0 0 0 0 0 0 0 0 0 0 0 0 0 0 0 0 0 0 0 0 0 0 0 0 0 0 0 0 0 0 0 0 0 0 0 0 0 0 0 0 0 0
0 0 0 0 0 0 0 0 0 0 0 0 0 0 0 0 0 0 0 0 0 0 0 0 0 0 0 0 0 0 0 0 0 0 0 0 0 0 0 0 0 0 0
0 0 0 0 0 0 0 0 0 0 0 0 0 0 0 0 0 0 0 0 0 0 0 0 0 0 0 0 0 0 0 0 0 0 0 0 0 0 0 0 0 0 0
Wind_Speed_500mb
122 121 121 123 115 120 112 104 95 85 77 79 74 67 63 57 46 38 32 22 21 31 26 22 18 14 14 16 18 21 25 26 29 32 41 43 47 46 49 51 51 50 48
116 107 121 123 121 121 109 97 90 80 73 83 84 75 61 50 35 31 29 32 35 30 24 22 18 16 19 21 23 27 30 34 35 42 42 42 43 45 49 48 50 47 54
107 117 117 119 116 108 97 92 86 85 90 86 75 63 57 47 45 39 37 37 34 29 25 22 21 22 24 27 30 32 36 39 41 44 44 41 42 43 43 44 47 53 58
108 108 106 107 107 98 90 86 87 93 87 77 66 60 50 52 43 38 39 36 31 27 24 24 26 27 30 33 36 39 40 42 43 43 41 38 36 34 42 40 52 55 61
104 102 105 109 101 95 92 91 94 86 77 74 60 59 53 42 41 42 34 32 29 25 25 28 31 33 35 39 42 42 44 44 42 41 40 33 33 35 39 46 52 57 65
91 95 97 98 95 95 93 89 87 77 69 67 64 52 48 46 37 32 33 29 26 27 29 33 37 39 41 44 44 45 47 46 46 41 38 36 39 42 42 50 58 64 64
90 93 96 95 94 94 88 89 82 76 76 67 57 52 44 37 35 33 30 29 29 29 33 37 40 43 45 46 46 48 49 48 50 48 46 45 47 46 50 55 59 61 64
92 96 93 96 99 93 88 77 83 75 65 59 51 43 40 36 32 30 30 31 31 32 35 39 43 45 47 49 50 51 49 49 46 48 50 49 47 46 48 55 60 65 66
92 94 97 96 94 85 87 83 69 64 58 51 44 39 34 31 30 29 29 30 33 35 38 41 43 47 49 49 54 52 49 50 49 51 47 44 43 45 51 55 57 59 61
99 98 91 89 87 88 78 72 65 55 49 43 39 34 31 29 29 28 30 33 33 33 36 41 44 48 48 46 50 51 53 49 47 45 45 42 44 48 50 51 54 57 56
84 83 80 79 79 75 69 60 55 48 45 40 34 32 30 29 29 29 30 27 24 30 35 37 39 44 49 53 55 52 49 46 42 43 42 42 45 47 49 50 52 54 56
75 78 73 69 63 57 53 51 48 45 39 34 31 31 30 31 29 28 25 22 21 28 32 37 40 45 51 53 51 52 51 44 41 41 40 42 45 47 48 50 50 51 52
68 65 58 53 52 51 52 50 46 42 38 36 32 30 28 29 31 29 23 19 18 27 29 36 43 50 56 56 50 45 46 41 41 41 41 43 45 47 47 50 50 49 49
54 50 50 54 53 48 44 40 39 38 37 35 30 27 29 35 33 29 24 21 22 26 28 34 42 52 57 54 44 46 45 43 43 42 43 46 47 47 47 48 49 50 52
46 48 50 47 44 42 41 40 38 34 29 26 27 30 32 34 30 30 34 34 30 30 31 36 42 47 53 52 48 49 49 49 46 44 46 48 48 47 47 46 47 47 46
45 46 47 45 43 37 37 40 38 38 38 35 33 34 35 37 38 40 43 41 39 39 38 37 40 44 46 47 49 51 51 51 49 49 50 50 48 47 46 44 45 44 40
40 42 44 43 43 41 39 40 43 41 36 35 34 36 43 43 46 47 45 45 46 49 47 44 47 52 50 49 50 51 52 50 50 53 53 51 49 48 45 42 43 41 35
38 39 40 42 41 38 39 41 44 39 38 36 38 43 46 47 47 50 50 50 55 53 49 51 51 57 58 57 56 55 55 56 54 55 54 51 50 47 45 42 41 36 34
40 38 39 41 43 41 37 38 44 44 41 45 44 44 43 46 51 56 57 59 56 54 55 58 58 63 63 61 61 60 58 60 57 56 54 50 48 45 43 42 39 34 34
33 33 35 36 38 38 42 46 46 47 49 49 45 39 40 46 53 57 60 59 58 57 57 61 60 66 66 66 64 63 62 61 58 57 52 47 47 45 44 42 38 32 34
25 28 32 36 39 40 45 46 46 48 48 47 43 41 41 46 50 53 57 57 57 57 59 62 64 68 69 68 64 65 63 61 59 56 49 46 47 45 45 42 37 32 33
29 31 30 32 35 40 39 40 43 45 46 47 47 47 47 50 52 51 52 53 53 55 58 63 66 69 72 66 62 63 61 60 59 55 48 48 47 44 44 42 37 33 34
21 23 26 28 29 31 34 37 39 41 43 45 48 50 49 49 49 49 49 50 53 57 60 60 68 74 67 61 59 58 58 57 54 53 49 49 47 43 41 40 37 34 34
19 19 21 23 25 27 29 30 33 35 38 40 42 42 43 44 45 46 47 51 56 59 59 66 73 69 61 57 55 54 54 55 55 53 49 50 46 42 39 40 37 35 34
14 16 17 19 20 22 23 24 25 27 29 30 32 34 36 39 42 45 48 51 54 57 65 69 65 60 54 50 50 51 51 52 54 52 48 48 45 41 37 38 36 36 35
11 12 12 12 13 14 16 17 20 23 25 28 30 33 36 38 40 42 47 52 56 57 55 53 51 48 45 46 46 47 47 48 50 46 46 46 43 39 34 36 35 36 35
Wind_Direction_500mb
203 205 207 209 203 208 198 198 199 196 197 184 175 169 173 173 173 165 161 194 218 230 223 226 233 247 266 280 288 298 301 302 296 299 304 307 307 310 312 315 318 321 317
207 209 208 206 201 199 194 197 188 191 187 180 174 174 176 172 177 206 193 210 220 220 223 233 244 259 272 281 293 297 299 303 299 297 301 301 303 308 310 315 318 321 320
204 203 199 201 194 189 184 182 186 185 182 178 173 176 177 193 199 175 199 211 215 220 226 238 251 260 273 282 289 295 299 297 297 294 296 298 303 306 305 312 316 320 321
195 195 194 190 185 180 179 181 180 176 173 167 173 180 188 174 172 188 204 210 216 225 234 246 258 267 273 282 289 293 292 294 294 292 293 296 297 297 307 314 315 319 320
187 187 184 181 177 175 174 174 170 167 167 166 177 177 170 173 189 202 205 213 220 232 245 257 264 272 278 282 286 289 291 291 290 289 289 288 292 297 307 312 315 315 322
180 179 174 172 168 165 165 165 168 167 166 166 165 165 179 194 199 203 211 220 229 241 252 259 266 271 278 281 284 290 292 291 290 286 286 286 298 302 307 313 315 322 324
170 167 166 163 161 161 158 159 159 161 161 164 168 182 193 196 203 211 218 228 237 248 256 264 273 279 280 283 286 287 289 285 282 281 284 292 297 299 307 315 317 315 311
160 159 157 157 153 151 154 160 159 161 160 166 181 186 194 201 210 218 227 236 245 254 264 270 275 281 284 286 285 285 285 283 286 282 285 292 294 298 307 312 313 309 312
151 150 152 153 150 154 156 156 159 164 173 181 185 190 198 207 217 226 237 245 252 260 267 273 280 284 285 286 282 282 284 288 284 284 291 294 295 300 306 311 311 310 314
150 149 150 154 153 151 154 163 169 176 178 179 185 192 203 213 222 230 240 245 256 267 278 283 284 286 285 282 280 284 284 283 285 292 294 291 295 300 304 308 309 311 313
145 146 146 147 150 154 163 170 171 171 179 183 188 198 209 217 224 229 237 250 270 277 282 288 291 291 289 287 282 279 279 282 288 285 284 288 293 297 303 306 308 309 311
142 142 148 154 160 165 168 167 172 178 182 190 198 207 210 217 223 230 239 256 267 283 297 299 297 294 295 286 280 276 278 283 278 278 281 287 293 299 301 302 304 305 309
151 154 159 163 166 169 173 177 178 180 189 197 205 212 217 223 226 229 230 247 281 293 303 309 307 298 290 284 279 276 274 278 278 280 285 290 293 294 296 299 302 306 313
163 164 167 171 171 174 180 186 191 195 199 207 215 226 226 229 228 229 236 254 270 289 304 307 303 295 290 285 275 270 273 274 278 278 283 286 289 292 296 299 304 310 313
173 174 176 178 180 181 187 196 200 205 213 227 240 245 239 239 241 241 245 256 266 282 294 298 298 290 284 280 275 270 271 272 271 276 282 284 286 290 295 300 304 308 311
181 182 185 186 190 194 204 210 209 213 220 229 239 250 258 252 243 245 250 257 264 275 287 300 302 297 286 282 277 273 269 270 270 274 281 282 285 288 292 295 300 305 307
189 192 194 196 201 207 212 221 224 226 231 243 252 261 265 261 253 251 256 263 272 275 284 294 303 299 293 285 277 272 272 274 272 272 279 281 281 285 288 292 297 302 302
193 199 207 211 213 219 226 228 236 237 244 253 257 266 269 264 259 256 260 266 270 275 283 290 296 299 294 288 280 276 274 272 273 271 275 276 278 282 285 291 296 297 299
205 207 212 218 221 227 235 240 245 247 257 258 259 267 274 270 265 261 262 267 274 279 283 288 292 298 295 289 282 278 275 273 273 271 271 272 275 279 284 288 293 290 295
215 219 226 231 236 239 246 246 252 257 256 257 263 279 281 274 269 267 266 270 274 280 283 285 288 295 295 290 285 280 276 271 270 270 267 270 275 279 282 285 287 282 292
225 233 239 242 246 251 251 256 256 257 261 263 273 282 285 283 280 276 274 275 278 282 283 284 287 293 295 292 285 280 274 271 269 265 264 266 271 276 279 281 280 277 289
230 233 238 244 246 246 251 256 257 261 264 268 274 280 284 285 286 284 279 278 280 281 283 283 287 294 297 292 284 277 272 269 266 262 262 264 267 270 274 277 275 273 287
232 236 238 240 246 251 253 256 260 263 267 272 277 280 283 284 284 283 281 279 279 280 284 286 292 295 293 288 281 275 271 268 264 261 260 263 265 266 271 275 273 270 283
242 243 248 252 256 260 265 269 273 275 277 279 281 284 285 286 285 284 283 283 284 286 286 294 297 295 291 286 281 277 273 267 264 264 262 263 264 263 268 274 269 267 281
235 243 252 262 266 268 271 274 278 281 284 287 290 293 294 295 295 297 298 297 297 295 296 300 299 295 291 287 283 279 274 268 269 267 264 266 264 264 267 273 267 265 279
246 251 253 257 265 275 284 288 291 295 299 302 303 303 304 306 306 305 303 303 302 302 304 304 301 297 292 289 284 279 274 272 274 270 270 269 266 266 269 273 265 266 278
Wind_Speed_850mb
122 121 121 123 115 120 112 104 95 85 77 79 74 67 63 57 46 38 32 22 21 31 26 22 18 14 14 16 18 21 25 26 29 32 41 43 47 46 49 51 51 50 48
116 107 121 123 121 121 109 97 90 80 73 83 84 75 61 50 35 31 29 32 35 30 24 22 18 16 19 21 23 27 30 34 35 42 42 42 43 45 49 48 50 47 54
107 117 117 119 116 108 97 92 86 85 90 86 75 63 57 47 45 39 37 37 34 29 25 22 21 22 24 27 30 32 36 39 41 44 44 41 42 43 43 44 47 53 58
108 108 106 107 107 98 90 86 87 93 87 77 66 60 50 52 43 38 39 36 31 27 24 24 26 27 30 33 36 39 40 42 43 43 41 38 36 34 42 40 52 55 61
104 102 105 109 101 95 92 91 94 86 77 74 60 59 53 42 41 42 34 32 29 25 25 28 31 33 35 39 42 42 44 44 42 41 40 33 33 35 39 46 52 57 65
91 95 97 98 95 95 93 89 87 77 69 67 64 52 48 46 37 32 33 29 26 27 29 33 37 39 41 44 44 45 47 46 46 41 38 36 39 42 42 50 58 64 64
90 93 96 95 94 94 88 89 82 76 76 67 57 52 44 37 35 33 30 29 29 29 33 37 40 43 45 46 46 48 49 48 50 48 46 45 47 46 50 55 59 61 64
92 96 93 96 99 93 88 77 83 75 65 59 51 43 40 36 32 30 30 31 31 32 35 39 43 45 47 49 50 51 49 49 46 48 50 49 47 46 48 55 60 65 66
92 94 97 96 94 85 87 83 69 64 58 51 44 39 34 31 30 29 29 30 33 35 38 41 43 47 49 49 54 52 49 50 49 51 47 44 43 45 51 55 57 59 61
99 98 91 89 87 88 78 72 65 55 49 43 39 34 31 29 29 28 30 33 33 33 36 41 44 48 48 46 50 51 53 49 47 45 45 42 44 48 50 51 54 57 56
84 83 80 79 79 75 69 60 55 48 45 40 34 32 30 29 29 29 30 27 24 30 35 37 39 44 49 53 55 52 49 46 42 43 42 42 45 47 49 50 52 54 56
75 78 73 69 63 57 53 51 48 45 39 34 31 31 30 31 29 28 25 22 21 28 32 37 40 45 51 53 51 52 51 44 41 41 40 42 45 47 48 50 50 51 52
68 65 58 53 52 51 52 50 46 42 38 36 32 30 28 29 31 29 23 19 18 27 29 36 43 50 56 56 50 45 46 41 41 41 41 43 45 47 47 50 50 49 49
54 50 50 54 53 48 44 40 39 38 37 35 30 27 29 35 33 29 24 21 22 26 28 34 42 52 57 54 44 46 45 43 43 42 43 46 47 47 47 48 49 50 52
46 48 50 47 44 42 41 40 38 34 29 26 27 30 32 34 30 30 34 34 30 30 31 36 42 47 53 52 48 49 49 49 46 44 46 48 48 47 47 46 47 47 46
45 46 47 45 43 37 37 40 38 38 38 35 33 34 35 37 38 40 43 41 39 39 38 37 40 44 46 47 49 51 51 51 49 49 50 50 48 47 46 44 45 44 40
40 42 44 43 43 41 39 40 43 41 36 35 34 36 43 43 46 47 45 45 46 49 47 44 47 52 50 49 50 51 52 50 50 53 53 51 49 48 45 42 43 41 35
38 39 40 42 41 38 39 41 44 39 38 36 38 43 46 47 47 50 50 50 55 53 49 51 51 57 58 57 56 55 55 56 54 55 54 51 50 47 45 42 41 36 34
40 38 39 41 43 41 37 38 44 44 41 45 44 44 43 46 51 56 57 59 56 54 55 58 58 63 63 61 61 60 58 60 57 56 54 50 48 45 43 42 39 34 34
33 33 35 36 38 38 42 46 46 47 49 49 45 39 40 46 53 57 60 59 58 57 57 61 60 66 66 66 64 63 62 61 58 57 52 47 47 45 44 42 38 32 34
25 28 32 36 39 40 45 46 46 48 48 47 43 41 41 46 50 53 57 57 57 57 59 62 64 68 69 68 64 65 63 61 59 56 49 46 47 45 45 42 37 32 33
29 31 30 32 35 40 39 40 43 45 46 47 47 47 47 50 52 51 52 53 53 55 58 63 66 69 72 66 62 63 61 60 59 55 48 48 47 44 44 42 37 33 34
21 23 26 28 29 31 34 37 39 41 43 45 48 50 49 49 49 49 49 50 53 57 60 60 68 74 67 61 59 58 58 57 54 53 49 49 47 43 41 40 37 34 34
19 19 21 23 25 27 29 30 33 35 38 40 42 42 43 44 45 46 47 51 56 59 59 66 73 69 61 57 55 54 54 55 55 53 49 50 46 42 39 40 37 35 34
14 16 17 19 20 22 23 24 25 27 29 30 32 34 36 39 42 45 48 51 54 57 65 69 65 60 54 50 50 51 51 52 54 52 48 48 45 41 37 38 36 36 35
11 12 12 12 13 14 16 17 20 23 25 28 30 33 36 38 40 42 47 52 56 57 55 53 51 48 45 46 46 47 47 48 50 46 46 46 43 39 34 36 35 36 35
Wind_Direction_850mb
203 205 207 209 203 208 198 198 199 196 197 184 175 169 173 173 173 165 161 194 218 230 223 226 233 247 266 280 288 298 301 302 296 299 304 307 307 310 312 315 318 321 317
207 209 208 206 201 199 194 197 188 191 187 180 174 174 176 172 177 206 193 210 220 220 223 233 244 259 272 281 293 297 299 303 299 297 301 301 303 308 310 315 318 321 320
204 203 199 201 194 189 184 182 186 185 182 178 173 176 177 193 199 175 199 211 215 220 226 238 251 260 273 282 289 295 299 297 297 294 296 298 303 306 305 312 316 320 321
195 195 194 190 185 180 179 181 180 176 173 167 173 180 188 174 172 188 204 210 216 225 234 246 258 267 273 282 289 293 292 294 294 292 293 296 297 297 307 314 315 319 320
187 187 184 181 177 175 174 174 170 167 167 166 177 177 170 173 189 202 205 213 220 232 245 257 264 272 278 282 286 289 291 291 290 289 289 288 292 297 307 312 315 315 322
180 179 174 172 168 165 165 165 168 167 166 166 165 165 179 194 199 203 211 220 229 241 252 259 266 271 278 281 284 290 292 291 290 286 286 286 298 302 307 313 315 322 324
170 167 166 163 161 161 158 159 159 161 161 164 168 182 193 196 203 211 218 228 237 248 256 264 273 279 280 283 286 287 289 285 282 281 284 292 297 299 307 315 317 315 311
160 159 157 157 153 151 154 160 159 161 160 166 181 186 194 201 210 218 227 236 245 254 264 270 275 281 284 286 285 285 285 283 286 282 285 292 294 298 307 312 313 309 312
151 150 152 153 150 154 156 156 159 164 173 181 185 190 198 207 217 226 237 245 252 260 267 273 280 284 285 286 282 282 284 288 284 284 291 294 295 300 306 311 311 310 314
150 149 150 154 153 151 154 163 169 176 178 179 185 192 203 213 222 230 240 245 256 267 278 283 284 286 285 282 280 284 284 283 285 292 294 291 295 300 304 308 309 311 313
145 146 146 147 150 154 163 170 171 171 179 183 188 198 209 217 224 229 237 250 270 277 282 288 291 291 289 287 282 279 279 282 288 285 284 288 293 297 303 306 308 309 311
142 142 148 154 160 165 168 167 172 178 182 190 198 207 210 217 223 230 239 256 267 283 297 299 297 294 295 286 280 276 278 283 278 278 281 287 293 299 301 302 304 305 309
151 154 159 163 166 169 173 177 178 180 189 197 205 212 217 223 226 229 230 247 281 293 303 309 307 298 290 284 279 276 274 278 278 280 285 290 293 294 296 299 302 306 313
163 164 167 171 171 174 180 186 191 195 199 207 215 226 226 229 228 229 236 254 270 289 304 307 303 295 290 285 275 270 273 274 278 278 283 286 289 292 296 299 304 310 313
173 174 176 178 180 181 187 196 200 205 213 227 240 245 239 239 241 241 245 256 266 282 294 298 298 290 284 280 275 270 271 272 271 276 282 284 286 290 295 300 304 308 311
181 182 185 186 190 194 204 210 209 213 220 229 239 250 258 252 243 245 250 257 264 275 287 300 302 297 286 282 277 273 269 270 270 274 281 282 285 288 292 295 300 305 307
189 192 194 196 201 207 212 221 224 226 231 243 252 261 265 261 253 251 256 263 272 275 284 294 303 299 293 285 277 272 272 274 272 272 279 281 281 285 288 292 297 302 302
193 199 207 211 213 219 226 228 236 237 244 253 257 266 269 264 259 256 260 266 270 275 283 290 296 299 294 288 280 276 274 272 273 271 275 276 278 282 285 291 296 297 299
205 207 212 218 221 227 235 240 245 247 257 258 259 267 274 270 265 261 262 267 274 279 283 288 292 298 295 289 282 278 275 273 273 271 271 272 275 279 284 288 293 290 295
215 219 226 231 236 239 246 246 252 257 256 257 263 279 281 274 269 267 266 270 274 280 283 285 288 295 295 290 285 280 276 271 270 270 267 270 275 279 282 285 287 282 292
225 233 239 242 246 251 251 256 256 257 261 263 273 282 285 283 280 276 274 275 278 282 283 284 287 293 295 292 285 280 274 271 269 265 264 266 271 276 279 281 280 277 289
230 233 238 244 246 246 251 256 257 261 264 268 274 280 284 285 286 284 279 278 280 281 283 283 287 294 297 292 284 277 272 269 266 262 262 264 267 270 274 277 275 273 287
232 236 238 240 246 251 253 256 260 263 267 272 277 280 283 284 284 283 281 279 279 280 284 286 292 295 293 288 281 275 271 268 264 261 260 263 265 266 271 275 273 270 283
242 243 248 252 256 260 265 269 273 275 277 279 281 284 285 286 285 284 283 283 284 286 286 294 297 295 291 286 281 277 273 267 264 264 262 263 264 263 268 274 269 267 281
235 243 252 262 266 268 271 274 278 281 284 287 290 293 294 295 295 297 298 297 297 295 296 300 299 295 291 287 283 279 274 268 269 267 264 266 264 264 267 273 267 265 279
246 251 253 257 265 275 284 288 291 295 299 302 303 303 304 306 306 305 303 303 302 302 304 304 301 297 292 289 284 279 274 272 274 270 270 269 266 266 269 273 265 266 278